AFR556 TBPB-TLPL

Flight info

Callsign AFR556
Flight time 0h 23m
Altitude 14000
Route BGI DCT BNE
Aircraft A320/M-SDE3FGHIRWY/LB1

Departure

Time 2026-04-22 11:22
Airport Grantley Adams International Airport (TBPB)

Arrival

Time 2026-04-22 11:46
Airport Hewanorra International Airport (TLPL)
Time Latitude Longitude Altitude Speed Heading
2026-04-22 11:00 13.07906 -59.48689 176 ft 0 kts 348°
2026-04-22 11:15 13.07890 -59.48686 176 ft 2 kts 348°
2026-04-22 11:16 13.07873 -59.48682 176 ft 3 kts 348°
2026-04-22 11:16 13.07857 -59.48678 176 ft 2 kts 311°
2026-04-22 11:16 13.07851 -59.48662 176 ft 3 kts 264°
2026-04-22 11:16 13.07854 -59.48650 176 ft 0 kts 225°
2026-04-22 11:17 13.07851 -59.48653 176 ft 3 kts 223°
2026-04-22 11:17 13.07823 -59.48674 176 ft 14 kts 215°
2026-04-22 11:18 13.07732 -59.48805 176 ft 21 kts 249°
2026-04-22 11:18 13.07714 -59.48865 176 ft 7 kts 252°
2026-04-22 11:18 13.07700 -59.48909 176 ft 6 kts 252°
2026-04-22 11:18 13.07683 -59.48984 176 ft 18 kts 258°
2026-04-22 11:19 13.07643 -59.49162 176 ft 32 kts 255°
2026-04-22 11:19 13.07578 -59.49420 176 ft 42 kts 255°
2026-04-22 11:19 13.07506 -59.49720 176 ft 43 kts 257°
2026-04-22 11:19 13.07439 -59.50015 176 ft 42 kts 256°
2026-04-22 11:20 13.07365 -59.50305 176 ft 42 kts 255°
2026-04-22 11:20 13.07291 -59.50594 176 ft 41 kts 256°
2026-04-22 11:20 13.07217 -59.50720 176 ft 5 kts 183°
2026-04-22 11:20 13.07216 -59.50720 176 ft 0 kts 182°
2026-04-22 11:21 13.07158 -59.50712 176 ft 21 kts 167°
2026-04-22 11:21 13.07117 -59.50620 177 ft 15 kts 77°
2026-04-22 11:21 13.07123 -59.50596 177 ft 18 kts 76°
2026-04-22 11:22 13.07218 -59.50213 178 ft 90 kts 76°
2026-04-22 11:22 13.07420 -59.49393 175 ft 145 kts 76°
2026-04-22 11:22 13.07671 -59.48322 665 ft 146 kts 78°
2026-04-22 11:22 13.07884 -59.47330 1364 ft 141 kts 75°
2026-04-22 11:23 13.08181 -59.46388 1878 ft 145 kts 57°
2026-04-22 11:23 13.08997 -59.45624 1941 ft 181 kts 21°
2026-04-22 11:23 13.10321 -59.45545 2339 ft 209 kts 343°
2026-04-22 11:23 13.11526 -59.46505 2767 ft 238 kts 306°
2026-04-22 11:24 13.12346 -59.48087 3242 ft 264 kts 294°
2026-04-22 11:24 13.13009 -59.49900 3949 ft 275 kts 290°
2026-04-22 11:24 13.13619 -59.51775 4829 ft 279 kts 288°
2026-04-22 11:24 13.14241 -59.53679 5728 ft 282 kts 288°
2026-04-22 11:25 13.14879 -59.55561 6588 ft 284 kts 289°
2026-04-22 11:25 13.15554 -59.57474 7460 ft 285 kts 289°
2026-04-22 11:25 13.16246 -59.59385 8358 ft 284 kts 289°
2026-04-22 11:25 13.16933 -59.61293 9250 ft 285 kts 289°
2026-04-22 11:26 13.17620 -59.63218 10042 ft 288 kts 289°
2026-04-22 11:26 13.18326 -59.65208 10412 ft 307 kts 288°
2026-04-22 11:26 13.19072 -59.67326 10582 ft 330 kts 289°
2026-04-22 11:26 13.19881 -59.69621 10828 ft 349 kts 289°
2026-04-22 11:27 13.20719 -59.71989 11402 ft 355 kts 289°
2026-04-22 11:27 13.21575 -59.74390 12048 ft 359 kts 289°
2026-04-22 11:27 13.22438 -59.76805 12709 ft 362 kts 289°
2026-04-22 11:27 13.23302 -59.79217 13352 ft 366 kts 289°
2026-04-22 11:28 13.24186 -59.81687 13835 ft 369 kts 289°
2026-04-22 11:28 13.25069 -59.84160 13967 ft 370 kts 289°
2026-04-22 11:28 13.25969 -59.86704 14076 ft 388 kts 289°
2026-04-22 11:28 13.26908 -59.89364 14198 ft 402 kts 289°
2026-04-22 11:29 13.27858 -59.92058 14302 ft 407 kts 289°
2026-04-22 11:29 13.28829 -59.94802 14417 ft 409 kts 289°
2026-04-22 11:29 13.29806 -59.97560 14427 ft 410 kts 289°
2026-04-22 11:29 13.30781 -60.00312 14426 ft 410 kts 289°
2026-04-22 11:30 13.31755 -60.03057 14430 ft 410 kts 289°
2026-04-22 11:30 13.32735 -60.05813 14430 ft 410 kts 289°
2026-04-22 11:30 13.33700 -60.08533 14430 ft 410 kts 289°
2026-04-22 11:30 13.34680 -60.11294 14430 ft 410 kts 289°
2026-04-22 11:31 13.35657 -60.14052 14433 ft 410 kts 289°
2026-04-22 11:31 13.36632 -60.16806 14430 ft 410 kts 289°
2026-04-22 11:31 13.37605 -60.19565 14434 ft 410 kts 289°
2026-04-22 11:31 13.38565 -60.22289 14435 ft 410 kts 289°
2026-04-22 11:32 13.39540 -60.25053 14434 ft 410 kts 289°
2026-04-22 11:32 13.40512 -60.27808 14435 ft 410 kts 289°
2026-04-22 11:32 13.41485 -60.30569 14435 ft 410 kts 289°
2026-04-22 11:32 13.42459 -60.33328 14434 ft 410 kts 289°
2026-04-22 11:33 13.43426 -60.36063 14434 ft 410 kts 289°
2026-04-22 11:33 13.44401 -60.38821 14434 ft 410 kts 289°
2026-04-22 11:33 13.45374 -60.41579 14432 ft 410 kts 289°
2026-04-22 11:33 13.46345 -60.44341 14431 ft 410 kts 289°
2026-04-22 11:34 13.47312 -60.47093 14432 ft 410 kts 289°
2026-04-22 11:34 13.48272 -60.49823 14433 ft 409 kts 289°
2026-04-22 11:34 13.49242 -60.52575 14431 ft 410 kts 289°
2026-04-22 11:34 13.50218 -60.55333 14431 ft 410 kts 289°
2026-04-22 11:35 13.51193 -60.58091 14431 ft 410 kts 289°
2026-04-22 11:35 13.52163 -60.60843 14430 ft 410 kts 289°
2026-04-22 11:35 13.53111 -60.63545 14427 ft 400 kts 289°
2026-04-22 11:35 13.54032 -60.66172 14380 ft 382 kts 289°
2026-04-22 11:36 13.54933 -60.68746 13512 ft 387 kts 289°
2026-04-22 11:36 13.55855 -60.71384 12576 ft 393 kts 289°
2026-04-22 11:36 13.56779 -60.74023 11834 ft 387 kts 289°
2026-04-22 11:36 13.57676 -60.76579 11245 ft 366 kts 289°
2026-04-22 11:37 13.58497 -60.78914 11089 ft 337 kts 288°
2026-04-22 11:37 13.59261 -60.81093 10968 ft 311 kts 289°
2026-04-22 11:37 13.59972 -60.83123 10680 ft 294 kts 288°
2026-04-22 11:37 13.60658 -60.85084 10332 ft 290 kts 288°
2026-04-22 11:38 13.61341 -60.87036 10189 ft 290 kts 288°
2026-04-22 11:38 13.62021 -60.88988 10052 ft 288 kts 288°
2026-04-22 11:38 13.63380 -60.92874 9353 ft 288 kts 288°
2026-04-22 11:39 13.64043 -60.94772 9231 ft 276 kts 288°
2026-04-22 11:39 13.64680 -60.96597 9099 ft 266 kts 288°
2026-04-22 11:39 13.65295 -60.98354 8961 ft 256 kts 288°
2026-04-22 11:39 13.65893 -61.00063 8662 ft 253 kts 289°
2026-04-22 11:40 13.66473 -61.01720 8506 ft 243 kts 289°
2026-04-22 11:40 13.67039 -61.03334 8377 ft 234 kts 289°
2026-04-22 11:40 13.67582 -61.04878 8251 ft 224 kts 289°
2026-04-22 11:40 13.68093 -61.06341 8111 ft 217 kts 289°
2026-04-22 11:41 13.68599 -61.07799 7861 ft 214 kts 289°
2026-04-22 11:41 13.69098 -61.09242 7634 ft 218 kts 289°
2026-04-22 11:41 13.69619 -61.10736 7259 ft 221 kts 289°
2026-04-22 11:41 13.70355 -61.12091 6870 ft 221 kts 317°
2026-04-22 11:42 13.71681 -61.12816 6590 ft 214 kts 348°
2026-04-22 11:42 13.73093 -61.12769 6319 ft 200 kts 18°
2026-04-22 11:42 13.74239 -61.12064 6062 ft 187 kts 47°
2026-04-22 11:42 13.74876 -61.10971 5816 ft 172 kts 74°
2026-04-22 11:43 13.74983 -61.09793 5461 ft 167 kts 94°
2026-04-22 11:43 13.74760 -61.08500 4240 ft 204 kts 103°
2026-04-22 11:43 13.74423 -61.07050 3463 ft 203 kts 101°
2026-04-22 11:43 13.74083 -61.05680 2610 ft 199 kts 105°
2026-04-22 11:44 13.73635 -61.04336 1820 ft 194 kts 108°
2026-04-22 11:44 13.73310 -61.03099 1644 ft 165 kts 98°
2026-04-22 11:44 13.73199 -61.02006 1397 ft 149 kts 90°
2026-04-22 11:44 13.73253 -61.00963 1041 ft 144 kts 83°
2026-04-22 11:45 13.73311 -60.99936 764 ft 140 kts 87°
2026-04-22 11:45 13.73342 -60.98943 532 ft 136 kts 88°
2026-04-22 11:45 13.73316 -60.97975 382 ft 135 kts 87°
2026-04-22 11:45 13.73334 -60.97021 194 ft 135 kts 88°
2026-04-22 11:46 13.73338 -60.96071 39 ft 125 kts 87°
2026-04-22 11:46 13.73345 -60.95287 28 ft 79 kts 90°
2026-04-22 11:46 13.73347 -60.94933 27 ft 34 kts 90°
2026-04-22 11:46 13.73344 -60.94702 27 ft 30 kts 90°
2026-04-22 11:47 13.73372 -60.94557 27 ft 16 kts 20°
2026-04-22 11:47 13.73452 -60.94577 31 ft 6 kts 334°
2026-04-22 11:47 13.73456 -60.94579 30 ft 0 kts 333°
2026-04-22 11:48 13.73511 -60.94621 35 ft 18 kts 317°
2026-04-22 11:48 13.73571 -60.94723 34 ft 16 kts 276°
2026-04-22 11:48 13.73565 -60.94833 36 ft 15 kts 249°
2026-04-22 11:48 13.73522 -60.94920 35 ft 13 kts 263°
2026-04-22 11:49 13.73525 -60.95010 35 ft 11 kts 300°
2026-04-22 11:49 13.73585 -60.95024 36 ft 8 kts 358°
2026-04-22 11:49 13.73596 -60.95024 36 ft 0 kts 359°